Time,TemperatureF,DewpointF,PressureIn,WindDirection,WindDirectionDegrees,WindSpeedMPH,WindSpeedGustMPH,Humidity,HourlyPrecipIn,Conditions,Clouds,dailyrainin,SoftwareType,DateUTC
2013-02-06 00:02:00,32.0,28.0,30.05,NW,304,4.0,9.0,85,0.00,,,0.00,,2013-02-06 05:02:00,
2013-02-06 00:12:00,32.0,28.0,30.05,NW,304,4.0,9.0,85,0.00,,,0.00,,2013-02-06 05:12:00,
2013-02-06 00:22:00,32.0,28.0,30.06,West,279,4.0,8.0,85,0.00,,,0.00,,2013-02-06 05:22:00,
2013-02-06 00:32:00,31.0,27.0,30.06,WNW,296,3.0,8.0,85,0.00,,,0.00,,2013-02-06 05:32:00,
2013-02-06 00:41:00,31.0,27.0,30.06,WNW,296,3.0,8.0,85,0.00,,,0.00,,2013-02-06 05:41:00,
2013-02-06 00:52:00,31.0,27.0,30.06,NW,319,4.0,9.0,85,0.00,,,0.00,,2013-02-06 05:52:00,
2013-02-06 01:01:00,31.0,27.0,30.06,NW,319,4.0,9.0,85,0.00,,,0.00,,2013-02-06 06:01:00,
2013-02-06 01:11:00,31.0,27.0,30.06,NW,319,4.0,9.0,85,0.00,,,0.00,,2013-02-06 06:11:00,
2013-02-06 01:21:00,30.0,26.0,30.08,NW,306,4.0,9.0,85,0.00,,,0.00,,2013-02-06 06:21:00,
2013-02-06 01:32:00,30.0,26.0,30.08,NW,306,4.0,9.0,85,0.00,,,0.00,,2013-02-06 06:32:00,
2013-02-06 01:42:00,30.0,26.0,30.08,NW,306,4.0,9.0,85,0.00,,,0.00,,2013-02-06 06:42:00,
2013-02-06 01:51:00,30.0,26.0,30.09,NW,316,3.0,10.0,85,0.00,,,0.00,,2013-02-06 06:51:00,
2013-02-06 02:01:00,30.0,25.0,30.10,NW,312,3.0,9.0,83,0.00,,,0.00,,2013-02-06 07:01:00,
2013-02-06 02:11:00,30.0,25.0,30.10,NW,312,3.0,9.0,83,0.00,,,0.00,,2013-02-06 07:11:00,
2013-02-06 02:21:00,29.0,25.0,30.11,NNW,332,2.0,7.0,83,0.00,,,0.00,,2013-02-06 07:21:00,
2013-02-06 02:32:00,29.0,24.0,30.11,West,265,3.0,10.0,82,0.00,,,0.00,,2013-02-06 07:32:00,
2013-02-06 02:42:00,29.0,24.0,30.11,West,265,3.0,10.0,82,0.00,,,0.00,,2013-02-06 07:42:00,
2013-02-06 02:51:00,29.0,25.0,30.11,NNW,344,2.0,7.0,83,0.00,,,0.00,,2013-02-06 07:51:00,
2013-02-06 03:01:00,29.0,25.0,30.12,NW,319,2.0,7.0,83,0.00,,,0.00,,2013-02-06 08:01:00,
2013-02-06 03:11:00,29.0,25.0,30.12,NW,319,2.0,7.0,83,0.00,,,0.00,,2013-02-06 08:11:00,
2013-02-06 03:21:00,29.0,25.0,30.13,NW,323,3.0,7.0,83,0.00,,,0.00,,2013-02-06 08:21:00,
2013-02-06 03:31:00,29.0,25.0,30.14,NW,306,2.0,5.0,83,0.00,,,0.00,,2013-02-06 08:31:00,
2013-02-06 03:42:00,29.0,25.0,30.14,NW,306,2.0,5.0,83,0.00,,,0.00,,2013-02-06 08:42:00,
2013-02-06 03:53:00,29.0,25.0,30.14,WNW,294,1.0,6.0,83,0.00,,,0.00,,2013-02-06 08:53:00,
2013-02-06 04:01:00,29.0,25.0,30.14,NNW,329,1.0,5.0,83,0.00,,,0.00,,2013-02-06 09:01:00,
2013-02-06 04:11:00,29.0,25.0,30.14,NNW,329,1.0,5.0,83,0.00,,,0.00,,2013-02-06 09:11:00,
2013-02-06 04:21:00,29.0,24.0,30.14,North,351,1.0,5.0,82,0.00,,,0.00,,2013-02-06 09:21:00,
2013-02-06 04:31:00,29.0,24.0,30.14,North,9,1.0,5.0,80,0.00,,,0.00,,2013-02-06 09:31:00,
2013-02-06 04:41:00,29.0,24.0,30.14,North,9,1.0,5.0,80,0.00,,,0.00,,2013-02-06 09:41:00,
2013-02-06 04:51:00,29.0,24.0,30.15,North,355,1.0,5.0,80,0.00,,,0.00,,2013-02-06 09:51:00,
2013-02-06 05:01:00,29.0,23.0,30.16,North,355,0.0,4.0,79,0.00,,,0.00,,2013-02-06 10:01:00,
2013-02-06 05:11:00,29.0,23.0,30.16,North,355,0.0,4.0,79,0.00,,,0.00,,2013-02-06 10:11:00,
2013-02-06 05:21:00,28.0,22.0,30.17,NW,322,1.0,4.0,79,0.00,,,0.00,,2013-02-06 10:21:00,
2013-02-06 05:31:00,28.0,22.0,30.17,NNE,21,0.0,4.0,77,0.00,,,0.00,,2013-02-06 10:31:00,
2013-02-06 05:42:00,28.0,22.0,30.17,NNE,21,0.0,4.0,77,0.00,,,0.00,,2013-02-06 10:42:00,
2013-02-06 05:51:00,28.0,22.0,30.17,NW,326,0.0,4.0,77,0.00,,,0.00,,2013-02-06 10:51:00,
2013-02-06 06:01:00,28.0,22.0,30.19,NNE,27,0.0,1.0,77,0.00,,,0.00,,2013-02-06 11:01:00,
2013-02-06 06:11:00,28.0,22.0,30.19,NNE,27,0.0,1.0,77,0.00,,,0.00,,2013-02-06 11:11:00,
2013-02-06 06:22:00,28.0,22.0,30.20,NNE,27,0.0,1.0,78,0.00,,,0.00,,2013-02-06 11:22:00,
2013-02-06 06:32:00,28.0,22.0,30.21,NNE,27,0.0,2.0,77,0.00,,,0.00,,2013-02-06 11:32:00,
2013-02-06 06:42:00,28.0,22.0,30.21,NNE,27,0.0,2.0,77,0.00,,,0.00,,2013-02-06 11:42:00,
2013-02-06 06:52:00,28.0,22.0,30.21,NNE,27,0.0,2.0,77,0.00,,,0.00,,2013-02-06 11:52:00,
2013-02-06 07:02:00,28.0,22.0,30.22,NNW,332,0.0,3.0,77,0.00,,,0.00,,2013-02-06 12:02:00,
2013-02-06 07:12:00,28.0,22.0,30.22,NNW,332,0.0,3.0,77,0.00,,,0.00,,2013-02-06 12:12:00,
2013-02-06 07:22:00,28.0,22.0,30.22,NNW,332,0.0,3.0,77,0.00,,,0.00,,2013-02-06 12:22:00,
2013-02-06 07:32:00,28.0,21.0,30.22,NNE,23,0.0,3.0,76,0.00,,,0.00,,2013-02-06 12:32:00,
2013-02-06 07:42:00,28.0,21.0,30.22,NNE,23,0.0,3.0,76,0.00,,,0.00,,2013-02-06 12:42:00,
2013-02-06 07:52:00,28.0,22.0,30.22,NNE,23,0.0,0.0,77,0.00,,,0.00,,2013-02-06 12:52:00,
2013-02-06 08:01:00,28.0,22.0,30.22,ENE,68,0.0,4.0,77,0.00,,,0.00,,2013-02-06 13:01:00,
2013-02-06 08:12:00,28.0,22.0,30.22,ENE,68,0.0,4.0,77,0.00,,,0.00,,2013-02-06 13:12:00,
2013-02-06 08:22:00,28.0,22.0,30.23,NE,43,0.0,3.0,77,0.00,,,0.00,,2013-02-06 13:22:00,
2013-02-06 08:32:00,28.0,21.0,30.24,NNW,335,0.0,3.0,75,0.00,,,0.00,,2013-02-06 13:32:00,
2013-02-06 08:42:00,28.0,21.0,30.24,NNW,335,0.0,3.0,75,0.00,,,0.00,,2013-02-06 13:42:00,
2013-02-06 08:52:00,28.0,21.0,30.24,NNW,331,0.0,2.0,76,0.00,,,0.00,,2013-02-06 13:52:00,
2013-02-06 09:02:00,28.0,21.0,30.26,NNW,331,0.0,1.0,75,0.00,,,0.00,,2013-02-06 14:02:00,
2013-02-06 09:11:00,28.0,21.0,30.26,NNW,331,0.0,1.0,75,0.00,,,0.00,,2013-02-06 14:11:00,
2013-02-06 09:22:00,28.0,21.0,30.25,ENE,67,0.0,3.0,76,0.00,,,0.00,,2013-02-06 14:22:00,
2013-02-06 09:32:00,29.0,22.0,30.25,ENE,78,1.0,3.0,75,0.00,,,0.00,,2013-02-06 14:32:00,
2013-02-06 09:42:00,29.0,22.0,30.25,ENE,78,1.0,3.0,75,0.00,,,0.00,,2013-02-06 14:42:00,
2013-02-06 09:52:00,29.0,21.0,30.25,East,97,3.0,5.0,73,0.00,,,0.00,,2013-02-06 14:52:00,
2013-02-06 10:01:00,29.0,21.0,30.25,East,94,2.0,5.0,72,0.00,,,0.00,,2013-02-06 15:01:00,
2013-02-06 10:11:00,29.0,21.0,30.25,East,94,2.0,5.0,72,0.00,,,0.00,,2013-02-06 15:11:00,
2013-02-06 10:21:00,29.0,21.0,30.25,East,95,1.0,3.0,72,0.00,,,0.00,,2013-02-06 15:21:00,
2013-02-06 10:31:00,30.0,21.0,30.25,East,96,1.0,5.0,70,0.00,,,0.00,,2013-02-06 15:31:00,
2013-02-06 10:42:00,30.0,21.0,30.25,East,96,1.0,5.0,70,0.00,,,0.00,,2013-02-06 15:42:00,
2013-02-06 10:52:00,31.0,22.0,30.25,SE,134,0.0,4.0,68,0.00,,,0.00,,2013-02-06 15:52:00,
2013-02-06 11:01:00,31.0,21.0,30.26,South,172,0.0,3.0,67,0.00,,,0.00,,2013-02-06 16:01:00,
2013-02-06 11:11:00,31.0,21.0,30.26,South,172,0.0,3.0,67,0.00,,,0.00,,2013-02-06 16:11:00,
2013-02-06 11:21:00,33.0,22.0,30.27,East,101,3.0,4.0,64,0.00,,,0.00,,2013-02-06 16:21:00,
2013-02-06 11:32:00,33.0,23.0,30.27,South,173,0.0,4.0,65,0.00,,,0.00,,2013-02-06 16:32:00,
2013-02-06 11:42:00,33.0,23.0,30.27,South,173,0.0,4.0,65,0.00,,,0.00,,2013-02-06 16:42:00,
2013-02-06 11:51:00,33.0,21.0,30.28,ESE,107,1.0,7.0,62,0.00,,,0.00,,2013-02-06 16:51:00,
2013-02-06 12:02:00,33.0,23.0,30.28,SSE,155,0.0,3.0,65,0.00,,,0.00,,2013-02-06 17:02:00,
2013-02-06 12:11:00,33.0,23.0,30.28,SSE,155,0.0,3.0,65,0.00,,,0.00,,2013-02-06 17:11:00,
2013-02-06 12:21:00,34.0,23.0,30.28,East,95,1.0,7.0,63,0.00,,,0.00,,2013-02-06 17:21:00,
2013-02-06 12:32:00,34.0,23.0,30.27,East,92,1.0,6.0,64,0.00,,,0.00,,2013-02-06 17:32:00,
2013-02-06 12:42:00,34.0,23.0,30.27,East,92,1.0,6.0,64,0.00,,,0.00,,2013-02-06 17:42:00,
2013-02-06 12:52:00,34.0,23.0,30.27,ESE,123,4.0,8.0,63,0.00,,,0.00,,2013-02-06 17:52:00,
2013-02-06 13:01:00,34.0,23.0,30.26,ESE,105,2.0,6.0,64,0.00,,,0.00,,2013-02-06 18:01:00,
2013-02-06 13:11:00,34.0,23.0,30.26,ESE,105,2.0,6.0,64,0.00,,,0.00,,2013-02-06 18:11:00,
2013-02-06 13:23:00,34.0,23.0,30.26,SW,217,0.0,8.0,63,0.00,,,0.00,,2013-02-06 18:23:00,
2013-02-06 13:32:00,36.0,24.0,30.26,ESE,120,0.0,3.0,62,0.00,,,0.00,,2013-02-06 18:32:00,
2013-02-06 13:42:00,36.0,24.0,30.26,ESE,120,0.0,3.0,62,0.00,,,0.00,,2013-02-06 18:42:00,
2013-02-06 13:52:00,38.0,25.0,30.26,SE,142,0.0,4.0,59,0.00,,,0.00,,2013-02-06 18:52:00,
2013-02-06 14:01:00,37.0,24.0,30.25,ESE,115,1.0,6.0,59,0.00,,,0.00,,2013-02-06 19:01:00,
2013-02-06 14:11:00,37.0,24.0,30.25,ESE,115,1.0,6.0,59,0.00,,,0.00,,2013-02-06 19:11:00,
2013-02-06 14:21:00,38.0,25.0,30.24,SSE,166,1.0,4.0,60,0.00,,,0.00,,2013-02-06 19:21:00,
2013-02-06 14:32:00,38.0,24.0,30.24,West,267,1.0,5.0,57,0.00,,,0.00,,2013-02-06 19:32:00,
2013-02-06 14:42:00,38.0,24.0,30.24,West,267,1.0,5.0,57,0.00,,,0.00,,2013-02-06 19:42:00,
2013-02-06 14:52:00,38.0,25.0,30.24,NNE,23,1.0,4.0,59,0.00,,,0.00,,2013-02-06 19:52:00,
2013-02-06 15:01:00,38.0,25.0,30.24,NNE,23,1.0,4.0,59,0.00,,,0.00,,2013-02-06 20:01:00,
2013-02-06 15:11:00,38.0,25.0,30.24,NNE,23,1.0,4.0,59,0.00,,,0.00,,2013-02-06 20:11:00,
2013-02-06 15:21:00,37.0,24.0,30.22,East,99,2.0,9.0,59,0.00,,,0.00,,2013-02-06 20:21:00,
2013-02-06 15:32:00,37.0,25.0,30.22,ESE,123,3.0,8.0,61,0.00,,,0.00,,2013-02-06 20:32:00,
2013-02-06 15:42:00,37.0,25.0,30.22,ESE,123,3.0,8.0,61,0.00,,,0.00,,2013-02-06 20:42:00,
2013-02-06 15:52:00,38.0,26.0,30.23,SE,132,1.0,5.0,61,0.00,,,0.00,,2013-02-06 20:52:00,
2013-02-06 16:02:00,38.0,26.0,30.24,East,82,1.0,5.0,61,0.00,,,0.00,,2013-02-06 21:02:00,
2013-02-06 16:11:00,38.0,26.0,30.24,East,82,1.0,5.0,61,0.00,,,0.00,,2013-02-06 21:11:00,
2013-02-06 16:21:00,38.0,26.0,30.25,West,279,1.0,6.0,61,0.00,,,0.00,,2013-02-06 21:21:00,
2013-02-06 16:32:00,37.0,25.0,30.24,ENE,59,0.0,3.0,61,0.00,,,0.00,,2013-02-06 21:32:00,
2013-02-06 16:42:00,37.0,25.0,30.24,ENE,59,0.0,3.0,61,0.00,,,0.00,,2013-02-06 21:42:00,
2013-02-06 16:51:00,37.0,24.0,30.25,SE,138,1.0,6.0,60,0.00,,,0.00,,2013-02-06 21:51:00,
2013-02-06 17:01:00,36.0,24.0,30.24,ESE,111,3.0,8.0,62,0.00,,,0.00,,2013-02-06 22:01:00,
2013-02-06 17:11:00,36.0,24.0,30.24,ESE,111,3.0,8.0,62,0.00,,,0.00,,2013-02-06 22:11:00,
2013-02-06 17:21:00,35.0,24.0,30.24,ESE,118,3.0,7.0,63,0.00,,,0.00,,2013-02-06 22:21:00,
2013-02-06 17:31:00,34.0,23.0,30.24,East,94,2.0,6.0,65,0.00,,,0.00,,2013-02-06 22:31:00,
2013-02-06 17:42:00,34.0,23.0,30.24,East,94,2.0,6.0,65,0.00,,,0.00,,2013-02-06 22:42:00,
2013-02-06 17:51:00,34.0,24.0,30.24,ENE,71,1.0,5.0,67,0.00,,,0.00,,2013-02-06 22:51:00,
2013-02-06 18:01:00,33.0,24.0,30.24,East,84,3.0,7.0,69,0.00,,,0.00,,2013-02-06 23:01:00,
2013-02-06 18:11:00,33.0,24.0,30.24,East,84,3.0,7.0,69,0.00,,,0.00,,2013-02-06 23:11:00,
2013-02-06 18:21:00,32.0,23.0,30.24,ESE,108,2.0,6.0,70,0.00,,,0.00,,2013-02-06 23:21:00,
2013-02-06 18:32:00,32.0,24.0,30.24,ESE,111,3.0,6.0,71,0.00,,,0.00,,2013-02-06 23:32:00,
2013-02-06 18:42:00,32.0,24.0,30.24,ESE,111,3.0,6.0,71,0.00,,,0.00,,2013-02-06 23:42:00,
2013-02-06 18:52:00,31.0,23.0,30.24,ESE,117,2.0,7.0,73,0.00,,,0.00,,2013-02-06 23:52:00,
2013-02-06 19:01:00,31.0,24.0,30.24,ESE,119,1.0,4.0,75,0.00,,,0.00,,2013-02-07 00:01:00,
2013-02-06 19:11:00,31.0,24.0,30.24,ESE,119,1.0,4.0,75,0.00,,,0.00,,2013-02-07 00:11:00,
2013-02-06 19:21:00,30.0,23.0,30.24,SE,127,2.0,5.0,76,0.00,,,0.00,,2013-02-07 00:21:00,
2013-02-06 19:31:00,30.0,24.0,30.24,ESE,107,0.0,3.0,77,0.00,,,0.00,,2013-02-07 00:31:00,
2013-02-06 19:42:00,30.0,24.0,30.24,ESE,107,0.0,3.0,77,0.00,,,0.00,,2013-02-07 00:42:00,
2013-02-06 19:51:00,29.0,23.0,30.24,East,90,1.0,3.0,79,0.00,,,0.00,,2013-02-07 00:51:00,
2013-02-06 20:01:00,29.0,23.0,30.23,ESE,105,1.0,4.0,79,0.00,,,0.00,,2013-02-07 01:01:00,
2013-02-06 20:11:00,29.0,23.0,30.23,ESE,105,1.0,4.0,79,0.00,,,0.00,,2013-02-07 01:11:00,
2013-02-06 20:21:00,30.0,25.0,30.22,SE,130,2.0,6.0,80,0.00,,,0.00,,2013-02-07 01:21:00,
2013-02-06 20:32:00,29.0,24.0,30.22,South,180,0.0,5.0,80,0.00,,,0.00,,2013-02-07 01:32:00,
2013-02-06 20:42:00,29.0,24.0,30.22,South,180,0.0,5.0,80,0.00,,,0.00,,2013-02-07 01:42:00,
2013-02-06 20:52:00,29.0,24.0,30.22,ESE,107,2.0,8.0,80,0.00,,,0.00,,2013-02-07 01:52:00,
2013-02-06 21:01:00,29.0,24.0,30.23,SSE,150,0.0,2.0,80,0.00,,,0.00,,2013-02-07 02:01:00,
2013-02-06 21:11:00,29.0,24.0,30.23,SSE,150,0.0,2.0,80,0.00,,,0.00,,2013-02-07 02:11:00,
2013-02-06 21:21:00,29.0,24.0,30.22,SE,146,0.0,3.0,81,0.00,,,0.00,,2013-02-07 02:21:00,
2013-02-06 21:32:00,29.0,24.0,30.22,ESE,121,0.0,1.0,81,0.00,,,0.00,,2013-02-07 02:32:00,
2013-02-06 21:41:00,29.0,24.0,30.22,ESE,121,0.0,1.0,81,0.00,,,0.00,,2013-02-07 02:41:00,
2013-02-06 21:51:00,29.0,24.0,30.22,ESE,121,0.0,1.0,81,0.00,,,0.00,,2013-02-07 02:51:00,
2013-02-06 22:02:00,29.0,24.0,30.22,SSE,157,0.0,1.0,82,0.00,,,0.00,,2013-02-07 03:02:00,
2013-02-06 22:11:00,29.0,24.0,30.22,SSE,157,0.0,1.0,82,0.00,,,0.00,,2013-02-07 03:11:00,
2013-02-06 22:21:00,29.0,24.0,30.22,SSE,157,0.0,0.0,82,0.00,,,0.00,,2013-02-07 03:21:00,
2013-02-06 22:31:00,29.0,25.0,30.23,SSE,157,0.0,0.0,83,0.00,,,0.00,,2013-02-07 03:31:00,
2013-02-06 22:42:00,29.0,25.0,30.23,SSE,157,0.0,0.0,83,0.00,,,0.00,,2013-02-07 03:42:00,
2013-02-06 22:52:00,28.0,24.0,30.22,SSE,157,0.0,0.0,84,0.00,,,0.00,,2013-02-07 03:52:00,
2013-02-06 23:01:00,29.0,25.0,30.21,ESE,116,0.0,2.0,83,0.00,,,0.00,,2013-02-07 04:01:00,
2013-02-06 23:11:00,29.0,25.0,30.21,ESE,116,0.0,2.0,83,0.00,,,0.00,,2013-02-07 04:11:00,
2013-02-06 23:22:00,29.0,25.0,30.21,SE,130,1.0,4.0,83,0.00,,,0.00,,2013-02-07 04:22:00,
2013-02-06 23:32:00,29.0,25.0,30.21,ESE,107,0.0,3.0,83,0.00,,,0.00,,2013-02-07 04:32:00,
2013-02-06 23:41:00,29.0,25.0,30.21,ESE,107,0.0,3.0,83,0.00,,,0.00,,2013-02-07 04:41:00,